Flag for U.S.A. Weather past 2 weeks in Bowling Green, Kentucky, U.S.A.

Now
69 °F

Clear.


Feels Like: 69 °F
Forecast: 58 / 81 °F
Wind: No wind

Location: Glasgow Municipal Airport

Current Time: Sep 20, 2014 at 9:30:59 PM

Latest Report: Sep 20, 2014 at 8:55 PM


Visibility: 10 mi

Pressure: 30.02 "Hg

Humidity: 93%

Dew point: 67 °F

Location of Bowling GreenLocation

Historic Weather in Bowling Green — Graph

°F

Bowling Green temperature yesterday

Maximum temperature yesterday: 82 °F (at 3:35 PM)
Minimum temperature yesterday: 54 °F (at 6:55 AM)
Average temperature yesterday: 66 °F

Past Weeks' High & Low Weather Summary

 TemperatureHumidityPressure
High87 °F (Sep 6, 2:15 PM)100% (Sep 6, 2:35 AM)30.28 "Hg (Sep 6, 2:35 AM)
Low48 °F (Sep 14, 4:55 AM)40% (Sep 14, 5:15 PM)29.85 "Hg (Sep 10, 6:55 PM)
Average67 °F80%30.08 "Hg
* Reported Sep 5 8:15 PM — Sep 20 8:15 PM, Bowling Green, Weather by CustomWeather, © 2014

Note: Actual official high and low records may vary slightly from our data, if they occured in-between our weather recording intervals... More about our weather records

Advertising

Bowling Green weather history for previous 24 hours

 ConditionsComfort  
Time TempWeatherWind HumidityBarometerVisibility
8:15 PM
Sep 20
71 °FClear.No wind80%30.01 "Hg10 mi
7:55 PM73 °FPassing clouds.No wind76%30.00 "Hg10 mi
7:35 PM72 °FCloudy.3 mph79%30.00 "Hg10 mi
7:15 PM73 °FMore clouds than sun.No wind77%29.99 "Hg10 mi
6:55 PM73 °FCloudy.No wind79%29.99 "Hg10 mi
6:35 PM74 °FMore clouds than sun.No wind73%29.98 "Hg10 mi
6:15 PM75 °FCloudy.5 mph71%29.99 "Hg10 mi
5:55 PM77 °FMore clouds than sun.No wind64%29.98 "Hg10 mi
5:15 PM80 °FOvercast.3 mph60%29.99 "Hg10 mi
4:55 PM80 °FPartly sunny.5 mph58%30.00 "Hg10 mi
4:35 PM82 °FScattered clouds.3 mph54%30.01 "Hg10 mi
3:55 PM83 °FSunny.8 mph51%30.02 "Hg10 mi
3:15 PM84 °FSunny.8 mph52%30.03 "Hg10 mi
2:55 PM83 °FScattered clouds.6 mph52%30.04 "Hg10 mi
2:35 PM83 °FScattered clouds.8 mph52%30.05 "Hg10 mi
2:15 PM83 °FScattered clouds.8 mph53%30.05 "Hg10 mi
1:55 PM83 °FScattered clouds.8 mph53%30.07 "Hg10 mi
1:35 PM82 °FScattered clouds.7 mph54%30.07 "Hg10 mi
1:15 PM82 °FPartly sunny.10 mph53%30.08 "Hg10 mi
12:55 PM81 °FScattered clouds.9 mph53%30.09 "Hg10 mi
8:15 AM69 °FOvercast.6 mph77%30.14 "Hg10 mi
7:55 AM68 °FBroken clouds.6 mph80%30.13 "Hg10 mi
7:35 AM68 °FScattered clouds.6 mph81%30.13 "Hg10 mi
7:15 AM67 °FPassing clouds.6 mph82%30.13 "Hg10 mi
6:55 AM66 °FPassing clouds.6 mph83%30.12 "Hg10 mi
6:35 AM66 °FPassing clouds.5 mph84%30.12 "Hg10 mi
6:15 AM66 °FClear.3 mph84%30.11 "Hg10 mi
5:55 AM66 °FClear.5 mph84%30.11 "Hg10 mi
5:15 AM67 °FClear.3 mph84%30.10 "Hg10 mi
4:55 AM67 °FClear.6 mph84%30.09 "Hg10 mi
4:35 AM67 °FClear.3 mph82%30.09 "Hg10 mi
4:15 AM68 °FClear.6 mph81%30.08 "Hg10 mi
3:55 AM68 °FClear.6 mph81%30.08 "Hg10 mi
3:35 AM68 °FPassing clouds.6 mph81%30.08 "Hg10 mi
3:15 AM69 °FPassing clouds.7 mph81%30.08 "Hg10 mi
2:55 AM69 °FClear.7 mph82%30.08 "Hg10 mi
2:35 AM68 °FPassing clouds.7 mph82%30.08 "Hg10 mi
2:15 AM67 °FPassing clouds.6 mph82%30.08 "Hg10 mi
1:55 AM67 °FPassing clouds.5 mph82%30.08 "Hg10 mi
1:35 AM65 °FPassing clouds.3 mph88%30.08 "Hg10 mi
1:15 AM63 °FPartly cloudy.No wind96%30.08 "Hg10 mi
12:55 AM62 °FPassing clouds.No wind99%30.07 "Hg10 mi
12:35 AM62 °FClear.No wind100%30.07 "Hg10 mi
12:15 AM62 °FPassing clouds.No wind98%30.07 "Hg10 mi
11:55 PM
Sep 19
62 °FPassing clouds.No wind99%30.08 "Hg10 mi
11:35 PM63 °FPassing clouds.No wind99%30.08 "Hg10 mi
11:15 PM63 °FPassing clouds.No wind99%30.08 "Hg10 mi
10:55 PM63 °FPassing clouds.No wind89%30.08 "Hg10 mi
10:35 PM64 °FClear.No wind84%30.08 "Hg10 mi
10:15 PM64 °FClear.No wind84%30.08 "Hg10 mi
9:55 PM65 °FClear.No wind84%30.07 "Hg10 mi
9:15 PM64 °FClear.No wind85%30.07 "Hg10 mi
Weather by CustomWeather, © 2014

See weather overviewHow to use our weather pages